Location: Kershaw
(34.5481°N, 80.5823°W)
Time: 16:03:27
(UTC+00:00)

Vanguard 1 Rocket - Pass Details

Date: 01 October 2022
Orbit: 650 x 4225 km, 34.3° (Epoch: 08 December)

Event Time Altitude Azimuth Distance (km) Brightness Sun altitude
Rises 07:49:11 0° 280° (W) 4,272 - -41.9°
Reaches altitude 10° 07:53:16 10° 266° (W) 2,809 - -41.2°
Maximum altitude 07:57:48 21° 219° (SW) 1,717 - -40.4°
Drops below altitude 10° 08:01:20 10° 168° (SSE) 2,121 - -39.8°
Sets 08:03:54 0° 151° (SSE) 2,951 - -39.3°
